Location: Rumah Long Bangan
(2.8362°N, 113.7519°E)
Time: 19:54:56
(UTC+00:00)

Cosmos 2341 Rocket - Pass Details

Date: 24 October 2021
Orbit: 967 x 1005 km, 82.9° (Epoch: 08 December)

Event Time Altitude Azimuth Distance (km) Brightness Sun altitude
Exits shadow 20:24:34 17° 355° (N) 2,257 5.7 -26.1°
Maximum altitude 20:29:34 86° 269° (W) 973 3.8 -24.9°
Drops below altitude 10° 20:35:46 10° 178° (S) 2,705 6.5 -23.4°
Sets 20:38:16 0° 178° (S) 3,654 7.2 -22.8°
